Date_and_time,latitude,longitude,wind_speed,RelWindDirFrom,WindDirFrom,air_pressure,air_temperature,relative_humidity,Temp,platform_speed_wrt_ground,air_pressure_at_mean_sea_level,platform_orientation
2019-06-13 23:40,50.6287416666667,-96.890895,11.5,15.2,179,979.77,20.7,53,16.73,10.3,1005.54,192.3
2019-06-13 23:50,50.62662,-96.93888,6.4,7.1,228,979.87,20.2,62,17.05,11.0,1005.65,192.3
2019-06-14 00:00,50.6274616666667,-96.9801766666667,8.3,13.9,262,979.72,20.8,50,16.82,9.4,1005.44,205.7
2019-06-14 00:10,50.6304166666667,-96.9807866666667,2.4,5.5,197,979.77,23.2,35,17.49,1.1,1005.40,205.7
2019-06-14 00:20,50.630435,-96.9807766666667,6.0,9.1,102,979.60,23.4,55,17.55,0.0,1005.22,205.7
2019-06-14 00:30,50.63044,-96.9807683333333,7.2,8.5,96,979.50,21.4,60,17.36,0.0,1005.21,205.7
2019-06-14 00:40,50.630435,-96.9807683333333,7.0,8.8,94,979.43,21.6,58,17.45,0.0,1005.12,205.7
2019-06-14 00:50,50.6304366666667,-96.9807683333333,5.6,7.3,91,979.34,21.8,59,17.51,0.0,1005.03,205.7
2019-06-14 01:00,50.6304383333333,-96.98077,6.0,6.7,96,979.24,21.6,64,17.46,0.0,1004.92,212.5
2019-06-14 01:10,50.6304383333333,-96.9807716666667,6.7,7.7,99,979.17,21.1,65,17.38,0.0,1004.82,212.5
2019-06-14 01:20,50.6304383333333,-96.9807733333333,6.4,6.9,104,979.08,20.5,67,17.23,0.0,1004.72,212.5
2019-06-14 01:30,50.6304216666667,-96.9807733333333,5.6,7.3,109,978.99,20.4,66,16.99,0.0,1004.64,212.5
2019-06-14 01:40,50.6304666666667,-96.9807983333333,6.7,8.3,116,978.84,20.1,66,16.81,0.0,1004.54,212.5
2019-06-14 01:50,50.6304683333333,-96.98076,8.0,8.6,105,978.75,19.7,67,16.85,0.0,1004.43,212.5
2019-06-14 02:00,50.6304583333333,-96.9807666666667,7.9,8.4,96,978.62,19.7,67,17.02,0.0,1004.19,224.9
2019-06-14 02:10,50.6304533333333,-96.9807666666667,7.6,8.3,93,978.55,19.7,66,17.05,0.0,1004.11,224.9
2019-06-14 02:20,50.6304516666667,-96.98077,5.4,6.2,89,978.52,19.5,69,17.12,0.0,1004.18,224.9
2019-06-14 02:30,50.6304466666667,-96.9807683333333,4.8,5.7,88,978.46,19.2,72,17.04,0.0,1004.12,224.9
2019-06-14 02:40,50.6304416666667,-96.980765,5.4,6.8,91,978.42,19.1,72,17.44,0.0,1004.08,224.9
2019-06-14 02:50,50.63042,-96.9807666666667,5.9,6.7,106,978.44,18.9,77,17.33,0.0,1004.11,224.9
2019-06-14 03:00,50.6304283333333,-96.98076,6.5,8.9,112,978.58,19.0,74,17.20,0.0,1004.27,352.7
2019-06-14 03:10,50.6304333333333,-96.9808033333333,7.7,9.4,113,978.68,19.2,73,17.17,0.0,1004.39,352.7
2019-06-14 03:20,50.6304183333333,-96.9807733333333,8.6,9.5,103,978.74,19.1,77,17.24,0.0,1004.47,352.7
2019-06-14 03:30,50.630415,-96.9807616666667,8.2,9.4,100,978.81,19.0,78,17.09,0.0,1004.56,352.7
2019-06-14 03:40,50.6304183333333,-96.9807616666667,7.6,8.3,105,978.77,18.8,81,17.09,0.0,1004.54,352.7
2019-06-14 03:50,50.630455,-96.9807866666667,7.3,8.6,113,978.69,18.5,88,17.10,0.0,1004.47,352.7
2019-06-14 04:00,50.6304366666667,-96.9807666666667,7.1,9.4,135,978.60,18.2,83,17.20,0.0,1004.39,360.0
2019-06-14 04:10,50.6304383333333,-96.9807666666667,7.7,8.8,146,978.45,17.9,75,17.26,0.0,1004.26,360.0
2019-06-14 04:20,50.63044,-96.9807666666667,6.1,7.5,138,978.34,17.9,80,17.22,0.0,1004.16,360.0
2019-06-14 04:30,50.63044,-96.980765,5.7,7.7,137,978.27,17.9,79,17.22,0.0,1004.10,360.0
2019-06-14 04:40,50.63044,-96.9807666666667,4.6,6.3,120,978.21,18.3,82,17.14,0.0,1004.02,360.0
2019-06-14 04:50,50.6304366666667,-96.9807666666667,4.0,5.1,95,978.12,18.0,87,17.10,0.0,1003.94,360.0
2019-06-14 05:00,50.6304383333333,-96.9807666666667,4.4,5.4,79,978.06,17.8,94,17.13,0.0,1003.88,161.1
2019-06-14 05:10,50.63044,-96.9807666666667,5.6,6.9,102,978.05,17.7,94,17.28,0.0,1003.88,161.1
2019-06-14 05:20,50.63044,-96.9807683333333,5.8,6.7,87,977.96,17.7,95,17.37,0.0,1003.79,161.1
2019-06-14 05:30,50.63044,-96.9807683333333,6.2,7.4,91,977.82,17.6,95,17.27,0.0,1003.66,161.1
2019-06-14 05:40,50.6304316666667,-96.980765,5.2,6.8,92,977.79,17.6,96,17.46,0.0,1003.65,161.1
2019-06-14 05:50,50.6304316666667,-96.9807666666667,4.6,5.6,95,977.78,17.5,96,17.45,0.0,1003.65,161.1
2019-06-14 06:00,50.6304316666667,-96.9807666666667,4.6,5.4,96,977.77,17.5,95,17.29,0.0,1003.65,347.4
2019-06-14 06:10,50.63045,-96.9807733333333,5.1,6.4,111,977.77,17.5,94,17.22,0.0,1003.65,347.4
2019-06-14 06:20,50.6304516666667,-96.9807733333333,6.0,7.2,122,977.70,17.4,94,17.38,0.0,1003.58,347.4
2019-06-14 06:30,50.6304483333333,-96.9807583333333,5.9,7.0,113,977.60,17.3,95,17.27,0.0,1003.47,347.4
2019-06-14 06:40,50.63042,-96.9807683333333,5.7,7.0,93,977.52,17.2,95,17.24,0.0,1003.40,347.4
2019-06-14 06:50,50.6304316666667,-96.98076,4.9,5.9,92,977.51,17.2,95,17.29,0.0,1003.41,347.4
2019-06-14 07:00,50.6304683333333,-96.9807716666667,4.9,6.1,83,977.43,17.2,96,17.17,0.0,1003.33,360.0
2019-06-14 07:10,50.6304233333333,-96.9807716666667,5.5,6.7,84,977.27,17.2,95,17.09,0.0,1003.16,360.0
2019-06-14 07:20,50.6304333333333,-96.980755,5.7,6.4,95,977.15,17.1,96,17.12,0.0,1003.04,360.0
2019-06-14 07:30,50.6304366666667,-96.9807583333333,4.6,6.5,91,977.10,17.1,98,17.12,0.0,1003.00,360.0
2019-06-14 07:40,50.6304333333333,-96.9807583333333,3.8,5.0,86,977.02,17.1,99,17.05,0.0,1002.92,360.0
2019-06-14 07:50,50.6304333333333,-96.9807616666667,3.5,4.5,101,976.98,17.1,99,17.00,0.0,1002.88,360.0
2019-06-14 08:00,50.630435,-96.9807616666667,2.7,4.2,92,976.99,17.2,98,16.93,0.0,1002.88,167.4
2019-06-14 08:10,50.630435,-96.9807633333333,3.9,7.2,159,976.99,16.9,86,16.89,0.0,1002.90,167.4
2019-06-14 08:20,50.630435,-96.9807616666667,5.9,7.7,152,977.05,17.0,80,16.90,0.0,1002.96,167.4
2019-06-14 08:30,50.630435,-96.9807616666667,3.9,5.6,133,977.05,17.6,81,16.88,0.0,1002.94,167.4
2019-06-14 08:40,50.630435,-96.9807616666667,6.9,9.1,165,976.87,17.1,77,16.87,0.0,1002.78,167.4
2019-06-14 08:50,50.630435,-96.9807616666667,6.1,8.0,160,976.82,17.0,80,16.88,0.0,1002.73,167.4
2019-06-14 09:00,50.630435,-96.9807616666667,6.7,8.7,161,976.71,16.9,83,17.04,0.0,1002.62,48.3
2019-06-14 09:10,50.6304366666667,-96.9807633333333,5.4,7.0,171,976.64,16.7,87,17.12,0.0,1002.56,48.3
2019-06-14 09:20,50.6304366666667,-96.9807633333333,4.1,5.5,180,976.61,16.5,87,17.30,0.0,1002.54,48.3
2019-06-14 09:30,50.6304383333333,-96.980765,2.3,4.1,182,976.72,16.4,86,17.39,0.0,1002.66,48.3
2019-06-14 09:40,50.6304383333333,-96.980765,1.4,2.4,163,976.78,16.4,85,17.42,0.0,1002.72,48.3
2019-06-14 09:50,50.6304383333333,-96.980765,2.7,3.5,179,976.71,16.5,82,17.41,0.0,1002.64,48.3
2019-06-14 10:00,50.63044,-96.980765,4.0,6.1,177,976.62,16.6,79,17.42,0.0,1002.56,166.7
2019-06-14 10:10,50.6304383333333,-96.980765,2.5,3.4,171,976.64,16.7,76,17.42,0.0,1002.57,166.7
2019-06-14 10:20,50.6304383333333,-96.980765,2.1,2.8,181,976.70,16.7,78,17.38,0.0,1002.61,166.7
2019-06-14 10:30,50.6304383333333,-96.9807666666667,2.9,3.5,170,976.75,16.4,83,17.37,0.0,1002.68,166.7
2019-06-14 10:40,50.6304383333333,-96.9807666666667,3.1,3.9,164,976.77,16.3,84,17.36,0.0,1002.72,166.7
2019-06-14 10:50,50.6304383333333,-96.9807666666667,3.0,4.1,141,976.77,16.3,91,17.34,0.0,1002.73,166.7
2019-06-14 11:00,50.630445,-96.9807716666667,2.8,3.8,125,976.82,17.0,91,17.28,0.0,1002.75,299.2
2019-06-14 11:10,50.6304366666667,-96.98077,2.6,3.5,117,976.92,16.8,89,17.29,0.0,1002.88,299.2
2019-06-14 11:20,50.6304333333333,-96.9807616666667,2.0,3.4,88,976.97,16.7,90,17.24,0.0,1002.93,299.2
2019-06-14 11:30,50.6304283333333,-96.9807633333333,0.9,2.2,75,977.04,16.7,91,17.22,0.0,1003.01,299.2
2019-06-14 11:40,50.63043,-96.980765,0.5,1.3,145,977.01,16.5,90,17.17,0.0,1002.98,299.2
2019-06-14 11:50,50.6304283333333,-96.9807783333333,1.9,4.5,2,977.01,16.7,92,17.08,0.0,1002.97,299.2
2019-06-14 12:00,50.6304333333333,-96.9807483333333,4.5,5.8,15,977.12,16.6,99,16.99,0.0,1003.07,131.7
2019-06-14 12:10,50.6304433333333,-96.9807633333333,7.0,9.0,30,977.14,16.3,99,17.10,0.0,1003.11,131.7
2019-06-14 12:20,50.6304533333333,-96.9807833333333,8.0,9.4,34,977.12,15.8,100,17.11,0.0,1003.12,131.7
2019-06-14 12:30,50.6304483333333,-96.9807733333333,8.0,10.1,37,977.14,15.8,100,17.13,0.0,1003.16,131.7
2019-06-14 12:40,50.6304483333333,-96.9807733333333,6.9,9.1,40,977.20,15.7,99,17.11,0.0,1003.21,131.7
2019-06-14 12:50,50.63045,-96.9807733333333,8.5,9.8,39,977.30,15.6,99,17.17,0.0,1003.30,131.7
2019-06-14 13:00,50.63045,-96.980775,8.1,9.5,46,977.36,15.6,99,17.37,0.0,1003.37,345.5
2019-06-14 13:10,50.63045,-96.9807716666667,8.2,9.7,45,977.41,15.5,99,17.20,0.0,1003.43,345.5
2019-06-14 13:20,50.6304516666667,-96.980775,7.9,10.2,44,977.42,15.5,99,17.08,0.0,1003.44,345.5
2019-06-14 13:30,50.6304483333333,-96.9807633333333,8.8,10.0,43,977.41,15.6,99,17.08,0.0,1003.43,345.5
2019-06-14 13:40,50.63046,-96.98078,9.4,10.5,46,977.49,15.6,99,17.11,0.0,1003.50,345.5
2019-06-14 13:50,50.6304566666667,-96.9807783333333,8.7,10.0,42,977.42,15.6,99,17.38,0.0,1003.44,345.5
2019-06-14 14:00,50.630455,-96.9807783333333,9.2,10.7,32,977.29,15.7,96,17.26,0.0,1003.31,323.4
2019-06-14 14:10,50.6304533333333,-96.9807766666667,11.0,12.3,17,977.36,15.7,96,17.34,0.0,1003.40,323.4
2019-06-14 14:20,50.63045,-96.980775,9.7,10.7,21,977.44,15.4,98,17.26,0.0,1003.51,323.4
2019-06-14 14:30,50.6304483333333,-96.9807766666667,8.9,10.0,22,977.52,15.4,99,17.54,0.0,1003.59,323.4
2019-06-14 14:40,50.6304183333333,-96.9807533333333,9.2,10.4,13,977.69,15.4,99,17.52,0.0,1003.77,323.4
2019-06-14 14:50,50.63043,-96.9807633333333,9.0,10.2,12,977.70,15.3,99,17.20,0.0,1003.79,323.4
2019-06-14 15:00,50.6304316666667,-96.98077,10.7,12.3,5,977.74,15.2,98,17.34,0.0,1003.83,270.0
2019-06-14 15:10,50.6304333333333,-96.98077,11.7,13.2,4,977.74,15.3,95,17.53,0.0,1003.83,270.0
2019-06-14 15:20,50.630435,-96.980775,11.6,13.4,8,977.79,15.4,94,17.59,0.0,1003.87,270.0
2019-06-14 15:30,50.6304366666667,-96.9807733333333,12.5,14.2,12,977.85,15.6,93,17.64,0.0,1003.92,270.0
2019-06-14 15:40,50.6304366666667,-96.980775,13.4,15.3,12,977.92,15.6,94,17.54,0.0,1003.99,270.0
2019-06-14 15:50,50.630435,-96.980775,14.7,16.2,9,977.91,15.6,94,17.53,0.0,1003.99,270.0
2019-06-14 16:00,50.630435,-96.980775,15.2,17.1,6,977.94,15.6,91,17.37,0.0,1004.01,360.0
2019-06-14 16:10,50.630435,-96.980775,15.4,17.3,6,978.02,15.9,86,17.45,0.0,1004.10,360.0
2019-06-14 16:20,50.630435,-96.9807733333333,15.4,17.3,6,978.05,16.1,84,17.46,0.0,1004.11,360.0
2019-06-14 16:30,50.630435,-96.98077,15.3,18.0,5,978.12,16.3,80,17.42,0.0,1004.18,360.0
2019-06-14 16:40,50.630435,-96.98077,15.4,17.7,5,978.13,16.5,77,17.41,0.0,1004.19,360.0
2019-06-14 16:50,50.630435,-96.9807683333333,16.7,19.9,6,978.10,16.6,77,17.42,0.0,1004.16,360.0
2019-06-14 17:00,50.630435,-96.9807683333333,16.2,18.8,6,978.11,16.6,76,17.42,0.0,1004.15,138.8
2019-06-14 17:10,50.6303983333333,-96.9807316666667,16.6,18.7,7,978.15,16.8,74,17.42,0.0,1004.18,138.8
2019-06-14 17:20,50.6304316666667,-96.980755,15.4,17.9,7,978.31,16.9,74,17.39,0.0,1004.34,138.8
2019-06-14 17:30,50.6304366666667,-96.9807583333333,15.0,17.5,7,978.42,17.1,74,17.44,0.0,1004.44,138.8
2019-06-14 17:40,50.6304383333333,-96.9807583333333,14.3,16.4,6,978.56,17.3,70,17.49,0.0,1004.58,138.8
2019-06-14 17:50,50.6304416666667,-96.9807733333333,13.6,15.7,7,978.60,17.4,68,17.56,0.0,1004.62,138.8
2019-06-14 18:00,50.6304416666667,-96.9807616666667,12.4,13.7,10,978.52,17.2,72,17.59,0.0,1004.53,41.3
2019-06-14 18:10,50.63044,-96.9807583333333,11.9,13.7,10,978.57,17.2,73,17.64,0.0,1004.57,41.3
2019-06-14 18:20,50.63044,-96.9807633333333,11.6,14.2,12,978.51,17.3,72,17.72,0.0,1004.49,41.3
2019-06-14 18:30,50.63044,-96.980765,13.2,15.1,11,978.47,17.5,68,17.79,0.0,1004.43,41.3
2019-06-14 18:40,50.63043,-96.9807683333333,13.4,14.8,14,978.42,17.6,66,17.74,0.0,1004.37,41.3
2019-06-14 18:50,50.6304183333333,-96.980725,12.4,14.4,18,978.44,17.7,63,17.60,0.0,1004.39,41.3
2019-06-14 19:00,50.6304366666667,-96.9807983333333,11.0,12.5,16,978.55,17.7,67,17.59,0.0,1004.50,270.0
2019-06-14 19:10,50.6304283333333,-96.980755,10.4,12.1,11,978.62,17.6,68,17.49,0.0,1004.56,270.0
2019-06-14 19:20,50.6304283333333,-96.980765,11.1,12.9,14,978.55,17.8,65,17.39,0.0,1004.48,270.0
2019-06-14 19:30,50.63043,-96.9807666666667,10.5,12.0,19,978.70,18.0,65,17.30,0.0,1004.61,270.0
2019-06-14 19:40,50.63043,-96.9807666666667,11.6,14.2,14,978.63,18.0,64,17.34,0.0,1004.53,270.0
2019-06-14 19:50,50.6304283333333,-96.9807666666667,10.0,12.9,13,978.74,18.2,63,17.42,0.0,1004.65,270.0
2019-06-14 20:00,50.6304266666667,-96.9807666666667,9.0,10.3,15,978.86,18.2,61,17.32,0.0,1004.76,360.0
2019-06-14 20:10,50.6304233333333,-96.9807733333333,11.1,13.3,11,978.84,18.4,59,17.29,0.0,1004.73,360.0
2019-06-14 20:20,50.63042,-96.9807683333333,11.8,13.6,6,978.84,18.6,56,17.25,0.0,1004.72,360.0
2019-06-14 20:30,50.630405,-96.9807616666667,10.5,12.5,6,979.00,19.2,45,17.21,0.0,1004.85,360.0
2019-06-14 20:40,50.6304133333333,-96.9807583333333,10.4,11.8,8,978.97,19.3,45,17.20,0.0,1004.81,360.0
2019-06-14 20:50,50.6304166666667,-96.980765,9.8,11.1,11,978.94,19.2,47,17.25,0.0,1004.79,360.0
2019-06-14 21:00,50.6304166666667,-96.9807716666667,9.9,12.1,12,979.02,19.0,49,17.23,0.0,1004.87,200.1
2019-06-14 21:10,50.6304283333333,-96.980795,10.4,12.5,6,979.03,19.0,52,17.11,0.0,1004.88,200.1
2019-06-14 21:20,50.6304266666667,-96.9807883333333,12.3,14.2,5,979.11,19.2,47,17.06,0.0,1004.94,200.1
2019-06-14 21:30,50.6304333333333,-96.980785,11.2,13.4,8,979.19,19.1,51,17.05,0.0,1005.03,200.1
2019-06-14 21:40,50.630435,-96.9807833333333,10.1,12.3,15,979.19,18.9,51,17.10,0.0,1005.04,200.1
2019-06-14 21:50,50.630435,-96.9807766666667,9.8,11.7,25,979.23,18.7,56,17.11,0.0,1005.08,200.1
2019-06-14 22:00,50.6304283333333,-96.980785,10.9,13.3,28,979.26,18.6,55,17.09,0.0,1005.11,143.4
2019-06-14 22:10,50.6304283333333,-96.9807816666667,10.3,12.9,30,979.33,18.6,56,17.12,0.0,1005.17,143.4
2019-06-14 22:20,50.6304266666667,-96.9807733333333,11.4,13.4,23,979.35,18.6,55,17.23,0.0,1005.17,143.4
2019-06-14 22:30,50.6304283333333,-96.980775,11.1,12.9,28,979.38,18.6,55,17.15,0.0,1005.20,143.4
2019-06-14 22:40,50.6304583333333,-96.9808,11.5,14.2,27,979.41,18.5,56,17.15,0.0,1005.23,143.4
2019-06-14 22:50,50.630435,-96.9807633333333,13.3,15.6,23,979.26,18.5,53,17.15,0.0,1005.08,143.4
2019-06-14 23:00,50.630425,-96.9807716666667,12.0,14.2,22,979.31,18.5,55,17.13,0.0,1005.14,270.0
2019-06-14 23:10,50.6304266666667,-96.980745,13.2,16.2,22,979.34,18.5,53,17.13,0.0,1005.16,270.0
2019-06-14 23:20,50.6304333333333,-96.9807633333333,13.8,15.7,19,979.30,18.6,49,17.13,0.0,1005.12,270.0
2019-06-14 23:30,50.6304383333333,-96.9807666666667,13.0,14.8,18,979.35,18.8,47,17.16,0.0,1005.17,270.0
2019-06-14 23:40,50.6304383333333,-96.98077,12.0,13.9,7,979.40,18.7,50,17.18,0.0,1005.23,270.0
2019-06-14 23:50,50.6304333333333,-96.9807733333333,12.7,15.7,6,979.38,19.0,45,17.22,0.0,1005.21,270.0
